Wetbulb
56.70 56.09 55.43 56.28 56.24 55.61 54.88 54.36 54.05 53.85 53.67 54.02 54.00 54.53 54.42 53.97 54.24 52.02 46.81 49.42 53.15 58.45 58.82 55.39 55.79 57.19 55.99 53.53 54.86 52.79 44.09 41.82 42.91 43.36 46.26 50.60 49.67 51.90 53.23 51.01 52.76 57.84 58.42 62.33 66.30
56.15 55.54 55.46 55.63 55.55 54.65 53.87 53.86 53.74 53.62 53.59 53.09 53.46 53.93 53.92 53.65 49.47 45.50 51.78 57.72 58.54 57.74 54.07 51.57 50.44 53.29 51.84 50.71 51.74 49.03 43.69 42.31 46.42 48.46 48.45 49.90 49.99 50.27 50.56 48.35 49.32 51.75 54.26 55.67 66.57
55.68 54.91 55.08 55.35 54.44 53.81 53.22 53.66 53.98 53.51 53.35 53.13 53.03 53.24 53.52 52.35 44.40 44.42 54.93 56.48 58.39 57.74 55.12 53.83 50.98 50.74 48.17 49.78 48.99 48.52 44.35 47.17 48.48 50.34 51.15 49.90 49.40 50.77 49.49 46.82 49.02 49.29 51.03 54.65 61.33
55.47 54.58 54.57 54.69 54.03 53.14 52.49 53.65 53.44 53.29 53.35 53.20 52.81 53.10 52.52 48.62 33.81 48.54 55.47 56.10 57.17 56.18 53.66 51.53 49.56 46.66 45.73 45.58 48.00 45.64 47.51 49.04 49.97 50.48 50.07 48.51 49.96 48.04 49.19 50.62 51.68 51.76 52.33 55.54 56.49
55.08 53.79 54.02 53.86 53.52 52.89 52.47 52.86 53.11 53.00 53.43 53.50 52.94 52.49 47.85 39.81 40.03 50.33 53.91 53.20 52.97 54.12 51.05 49.15 46.30 45.85 43.89 46.40 46.59 45.12 47.54 49.80 50.28 48.35 48.04 49.68 47.90 47.71 48.35 50.81 52.17 52.74 53.12 53.36 59.64
54.41 53.76 54.26 53.31 53.26 53.08 52.50 52.62 52.45 52.88 53.10 53.32 53.10 51.67 43.13 33.59 46.52 50.50 49.88 50.43 51.25 52.40 50.77 50.61 47.69 47.94 46.26 46.45 45.61 47.56 48.32 48.56 48.62 47.99 48.51 46.91 47.60 49.04 49.37 51.24 51.59 51.84 51.98 52.29 56.53
54.02 53.62 53.22 54.07 53.76 53.48 52.97 52.57 52.38 52.35 52.46 53.25 52.99 47.86 40.48 37.77 47.35 48.25 48.30 48.22 51.28 52.72 49.06 52.15 50.59 48.37 47.90 45.40 49.04 47.76 44.16 45.60 47.08 47.39 46.94 48.15 45.12 45.87 50.42 50.85 50.33 50.64 51.48 51.81 51.40
53.31 53.41 52.35 53.06 53.77 53.70 53.70 52.50 52.10 52.26 52.27 52.85 51.93 44.22 35.61 46.21 47.39 47.51 47.69 48.50 51.55 54.32 52.76 54.04 51.83 47.92 46.36 47.26 46.18 44.62 43.69 39.31 44.39 46.21 47.45 46.47 40.61 46.31 50.17 49.65 49.19 50.22 51.21 51.47 51.00
53.00 53.06 52.56 52.69 53.36 53.72 53.35 52.57 52.00 52.16 51.97 51.69 44.87 40.97 35.26 48.73 44.59 47.38 49.88 46.34 49.73 52.48 53.27 54.00 51.35 45.58 45.60 41.38 40.16 41.17 36.17 37.38 40.66 46.13 45.99 44.53 40.82 46.37 49.71 48.85 49.07 49.99 50.61 51.17 51.25
52.18 52.61 52.55 52.29 52.96 53.71 51.96 51.62 51.35 48.98 47.83 47.92 46.53 35.42 39.69 39.72 45.35 47.35 49.80 49.60 46.89 48.72 47.66 47.88 45.12 41.19 41.19 38.33 32.30 35.17 36.12 37.74 37.47 43.39 44.71 42.59 42.43 46.47 47.94 48.63 49.06 49.31 50.07 50.44 50.66
51.85 51.92 52.34 51.81 52.70 53.37 45.64 41.35 37.32 36.45 41.56 38.20 38.66 37.71 40.50 44.69 47.82 45.68 48.33 46.46 46.70 45.38 37.54 43.75 38.62 36.05 37.00 39.44 38.21 38.01 37.77 36.67 38.95 43.06 42.92 42.37 42.17 44.15 47.38 47.20 47.25 48.55 49.33 49.88 50.48
51.83 51.58 52.29 51.55 52.52 51.00 43.18 38.01 38.75 40.63 35.40 42.99 42.79 42.02 44.16 44.67 39.17 42.71 48.80 41.44 41.35 37.30 40.15 38.06 36.00 38.20 40.70 41.19 39.19 37.79 35.56 35.66 38.94 41.70 42.56 40.97 41.24 43.57 46.40 46.56 47.56 48.10 49.07 49.70 48.22
51.81 51.41 52.28 51.35 52.38 44.76 40.94 41.11 45.12 43.72 35.73 40.96 43.36 42.28 42.72 43.53 39.85 40.16 46.12 43.75 39.52 36.89 37.41 34.54 38.15 41.12 40.64 39.23 37.24 36.02 34.77 34.65 35.46 39.14 40.73 39.77 38.18 40.00 44.01 46.42 47.61 48.69 49.73 50.64 48.72
51.77 51.57 51.57 51.76 44.14 41.82 39.52 44.79 44.69 42.75 29.18 36.13 39.57 41.36 43.84 42.32 37.57 46.46 47.34 43.21 40.02 36.47 37.71 38.31 42.01 39.95 38.67 37.04 37.78 34.07 38.55 37.60 36.47 35.45 32.75 37.95 30.96 36.11 41.72 42.34 44.38 46.54 48.59 49.36 47.27
51.48 51.35 50.97 51.35 41.20 39.14 42.62 46.78 43.63 38.62 18.30 36.99 40.37 48.37 44.69 37.69 38.64 40.87 47.93 44.30 37.21 36.82 37.85 35.96 38.98 38.03 36.97 38.08 39.33 35.93 40.05 37.24 35.84 33.43 33.34 32.69 31.80 33.91 38.24 39.83 42.48 44.75 46.69 48.52 47.81
51.47 50.89 51.90 47.38 44.22 45.31 48.18 43.72 39.23 23.31 16.71 34.72 40.99 39.78 38.96 40.08 40.01 42.74 42.41 44.84 44.63 39.21 39.60 38.87 42.23 40.66 38.95 40.41 40.62 40.71 37.12 35.98 34.06 32.10 27.07 30.73 31.67 31.68 34.76 37.86 39.98 44.58 47.60 48.55 48.43
51.64 52.10 47.96 46.56 41.52 48.77 47.19 37.81 22.90 19.15 30.15 31.26 35.05 38.83 37.80 36.37 37.08 38.93 38.71 36.23 34.20 30.06 32.20 36.90 37.91 40.49 40.27 36.80 40.37 39.67 33.79 27.33 24.23 25.72 24.18 29.79 28.83 33.97 38.89 39.46 40.12 41.28 42.48 44.78 47.01
51.58 51.98 48.95 46.65 46.67 48.74 43.60 30.48 19.71 27.99 28.08 35.99 37.27 38.62 34.99 37.06 36.21 36.99 36.87 33.20 36.95 35.49 33.94 31.50 29.04 37.96 40.03 36.36 35.19 35.72 34.69 26.41 19.89 21.78 23.83 28.84 26.82 33.02 38.76 39.98 41.44 41.51 41.30 42.05 41.73
50.22 42.97 43.19 45.30 47.34 47.09 33.89 22.05 22.41 23.95 29.58 33.41 34.41 35.22 33.30 38.03 37.34 35.80 36.76 34.53 36.31 36.07 31.54 30.68 30.66 38.98 40.65 40.13 38.16 34.91 32.90 33.63 27.32 23.42 21.91 26.59 29.35 34.72 36.23 37.67 38.53 39.09 39.97 40.41 41.20
41.24 40.88 41.77 46.09 47.08 41.33 28.80 28.34 28.62 33.73 35.15 36.16 29.99 31.38 30.17 34.46 33.81 34.73 33.09 36.13 36.54 37.69 36.09 33.53 27.78 36.97 38.93 41.21 40.14 37.63 36.61 30.14 30.44 20.87 20.00 23.85 24.84 29.80 33.81 35.47 37.51 37.86 38.89 40.71 41.04
41.32 37.70 43.46 46.09 44.95 33.32 24.75 24.63 33.39 38.45 38.58 35.07 30.95 30.83 30.01 32.14 34.26 31.93 31.49 35.23 38.29 37.34 37.43 34.11 30.68 33.02 37.60 35.73 35.32 36.13 34.26 33.48 31.24 27.15 22.63 20.35 25.83 32.45 33.94 35.99 35.41 36.34 37.13 40.27 41.28
36.95 31.76 42.65 44.00 31.57 28.79 25.35 32.04 39.32 37.33 38.61 37.55 35.31 33.74 31.38 32.55 34.91 31.20 31.28 33.86 39.36 39.20 34.98 35.78 31.63 29.26 32.53 38.14 39.63 38.70 35.38 35.62 30.00 25.65 23.14 22.38 27.71 35.28 34.43 35.23 35.16 35.48 38.91 42.02 42.75
35.76 35.29 40.40 39.85 24.05 23.96 31.48 34.42 37.42 36.59 35.77 34.96 33.90 35.51 34.53 31.88 30.87 32.39 32.52 38.01 39.59 38.50 35.58 36.39 31.37 26.45 28.71 33.44 37.20 35.23 36.41 37.22 33.00 30.99 20.71 24.37 27.40 34.84 35.23 36.01 37.74 38.40 40.56 42.47 42.52
32.45 27.83 30.84 33.95 31.78 30.04 29.28 30.42 33.09 37.70 37.32 37.14 35.15 34.83 32.45 31.41 34.30 32.31 32.08 37.19 38.74 40.24 43.28 40.98 32.95 28.11 24.79 26.56 30.85 31.01 33.48 35.58 34.62 29.27 28.03 28.19 30.33 35.43 37.34 36.67 37.33 39.55 41.12 42.23 42.59
30.29 28.11 28.39 23.06 26.11 28.29 29.68 30.73 30.88 32.43 35.75 36.24 35.20 32.52 32.96 30.85 29.39 30.17 33.35 34.32 36.82 40.02 40.90 39.32 32.03 31.42 31.34 31.12 32.74 31.85 32.03 32.64 31.49 33.00 29.22 30.12 31.01 35.35 37.55 38.99 37.85 39.05 40.09 41.32 41.68
29.71 28.63 28.06 25.42 27.86 26.13 29.87 30.02 29.71 30.71 31.22 31.95 32.20 30.48 34.73 32.60 34.09 31.10 34.33 34.28 33.38 34.70 35.21 36.03 31.14 29.63 26.39 31.59 29.90 28.65 31.34 32.58 32.95 33.41 33.35 33.89 33.09 40.05 41.19 38.39 39.09 39.45 38.45 40.66 41.70
30.47 32.38 29.66 27.03 24.89 22.99 25.56 28.25 28.67 29.18 30.44 33.67 31.06 28.76 28.48 32.11 38.19 37.33 37.27 37.22 37.89 34.34 32.14 31.85 30.28 28.47 26.18 28.33 27.34 22.91 29.26 31.51 32.96 33.83 34.49 31.07 35.75 39.04 38.42 39.11 40.75 41.76 39.73 40.33 42.57
MSLP
1019.62 1019.23 1018.78 1018.17 1017.82 1017.62 1017.46 1017.15 1016.85 1016.71 1016.65 1016.53 1016.31 1016.12 1016.17 1016.20 1016.29 1016.81 1016.75 1016.22 1015.72 1015.50 1015.33 1015.38 1015.57 1015.43 1015.90 1016.58 1016.73 1016.86 1017.98 1017.13 1016.55 1016.49 1016.61 1016.68 1016.74 1017.00 1016.85 1016.74 1016.79 1017.02 1017.10 1016.91 1016.46
1019.77 1019.40 1018.84 1018.30 1018.07 1017.93 1017.73 1017.41 1017.03 1016.88 1016.72 1016.60 1016.45 1016.28 1016.30 1016.27 1016.32 1016.28 1016.82 1016.28 1015.79 1015.47 1015.63 1015.51 1015.80 1015.47 1016.05 1016.71 1017.21 1017.08 1017.18 1016.78 1016.37 1016.36 1016.61 1016.91 1016.92 1017.16 1017.24 1017.15 1017.36 1017.28 1016.98 1016.90 1016.73
1019.86 1019.46 1019.06 1018.57 1018.22 1018.09 1017.94 1017.77 1017.32 1017.14 1016.94 1016.73 1016.63 1016.37 1016.38 1016.51 1016.71 1016.35 1015.94 1015.95 1015.68 1015.21 1015.43 1015.85 1015.97 1015.64 1016.37 1016.81 1017.05 1017.03 1016.93 1016.76 1017.01 1016.70 1016.60 1017.08 1017.43 1017.48 1017.34 1017.63 1017.86 1017.94 1017.53 1017.14 1017.23
1019.88 1019.56 1019.17 1018.72 1018.61 1018.32 1018.16 1017.94 1017.66 1017.36 1017.14 1016.85 1016.75 1016.53 1016.39 1016.55 1016.77 1016.15 1016.20 1016.22 1015.74 1015.48 1015.73 1015.90 1016.10 1016.13 1016.46 1016.79 1016.84 1016.94 1016.94 1016.93 1017.41 1017.19 1017.03 1017.49 1017.68 1017.72 1017.49 1017.53 1017.84 1017.88 1017.98 1017.47 1017.32
1019.89 1019.56 1019.32 1018.96 1018.72 1018.50 1018.31 1018.17 1017.89 1017.58 1017.29 1016.97 1016.82 1016.68 1016.59 1016.89 1016.56 1016.12 1015.99 1015.78 1015.57 1015.57 1015.71 1016.10 1016.25 1016.37 1016.34 1016.54 1016.61 1016.70 1016.76 1017.20 1017.39 1017.41 1017.58 1017.67 1017.95 1018.01 1017.52 1017.52 1017.54 1017.58 1017.45 1017.62 1017.66
1019.87 1019.62 1019.37 1019.09 1018.82 1018.69 1018.39 1018.14 1017.99 1017.78 1017.51 1017.15 1016.96 1016.78 1016.82 1016.85 1016.46 1016.06 1016.13 1016.09 1015.72 1015.43 1015.86 1016.14 1016.16 1016.01 1016.16 1016.40 1016.35 1016.32 1016.83 1017.29 1017.46 1017.62 1017.70 1017.57 1018.01 1017.98 1017.55 1017.36 1017.08 1017.32 1017.46 1017.59 1017.71
1019.85 1019.58 1019.46 1019.07 1018.82 1018.66 1018.51 1018.25 1018.10 1017.96 1017.70 1017.34 1017.10 1017.14 1017.00 1016.90 1016.35 1016.23 1016.06 1016.10 1015.81 1015.52 1015.94 1016.02 1016.16 1016.08 1016.30 1016.54 1016.33 1016.27 1017.47 1017.76 1017.88 1017.86 1017.98 1017.56 1017.54 1017.11 1017.34 1017.35 1017.30 1017.27 1017.48 1017.54 1017.58
1019.71 1019.53 1019.34 1019.03 1018.85 1018.61 1018.39 1018.27 1018.07 1017.93 1017.84 1017.60 1017.43 1017.49 1017.25 1016.57 1016.51 1016.23 1016.16 1015.77 1015.53 1015.59 1015.80 1015.98 1016.06 1016.21 1016.52 1016.66 1016.62 1016.65 1017.63 1018.21 1018.04 1018.13 1018.35 1017.93 1016.86 1016.74 1017.02 1017.11 1017.32 1017.41 1017.55 1017.64 1017.30
1019.66 1019.46 1019.16 1018.96 1018.75 1018.54 1018.33 1018.05 1018.07 1017.79 1017.77 1017.77 1017.89 1017.91 1017.54 1016.64 1016.86 1016.86 1016.48 1016.12 1016.03 1015.88 1015.85 1016.31 1016.22 1016.66 1016.90 1017.01 1017.29 1017.37 1017.65 1017.95 1018.46 1018.28 1018.32 1018.14 1017.47 1016.81 1016.93 1016.89 1016.98 1017.47 1017.69 1017.66 1017.39
1019.52 1019.39 1019.08 1018.83 1018.62 1018.43 1018.20 1018.04 1018.01 1017.98 1017.98 1017.94 1018.18 1018.53 1017.94 1017.91 1017.54 1017.21 1016.65 1016.58 1016.51 1016.54 1016.56 1016.86 1016.99 1017.33 1017.56 1017.50 1016.96 1017.54 1017.92 1017.88 1018.26 1018.65 1018.73 1018.65 1018.09 1017.50 1017.27 1017.38 1017.01 1017.41 1017.52 1017.54 1017.52
1019.42 1019.24 1018.96 1018.71 1018.57 1018.38 1018.42 1018.35 1018.84 1018.84 1018.64 1019.05 1019.01 1018.78 1018.49 1018.06 1017.57 1017.50 1017.18 1017.04 1017.33 1016.97 1017.51 1017.54 1017.67 1017.63 1017.93 1017.70 1017.55 1017.73 1017.95 1017.88 1018.03 1017.97 1018.35 1018.17 1017.87 1017.62 1017.70 1017.22 1016.41 1016.94 1017.33 1017.49 1017.21
1019.35 1019.06 1018.78 1018.60 1018.59 1018.50 1018.71 1018.95 1019.16 1019.44 1019.26 1018.92 1018.88 1018.68 1018.51 1018.41 1017.94 1017.65 1017.46 1017.72 1017.55 1017.64 1018.09 1018.50 1018.22 1017.97 1017.76 1017.81 1017.88 1018.06 1018.26 1018.45 1018.26 1018.02 1018.37 1018.12 1017.77 1017.51 1017.52 1017.15 1016.57 1017.03 1016.83 1016.75 1016.89
1019.16 1018.86 1018.62 1018.43 1018.61 1018.78 1018.96 1019.17 1019.06 1019.25 1019.26 1018.88 1018.77 1018.70 1018.62 1018.50 1018.39 1018.00 1017.92 1017.58 1017.93 1018.19 1018.74 1018.82 1018.25 1017.77 1017.89 1018.18 1018.34 1018.62 1018.48 1018.47 1018.39 1018.34 1018.39 1018.11 1017.90 1017.49 1017.25 1016.96 1016.50 1016.10 1015.92 1015.77 1016.10
1018.97 1018.63 1018.39 1018.48 1019.04 1019.19 1019.13 1019.04 1019.17 1019.35 1019.50 1019.54 1018.76 1018.57 1018.60 1018.38 1018.31 1017.93 1017.89 1017.90 1018.16 1018.85 1019.03 1018.80 1018.12 1017.88 1018.15 1018.34 1018.25 1018.55 1018.47 1018.43 1018.58 1018.65 1018.77 1018.47 1017.88 1016.97 1016.75 1016.47 1015.98 1015.42 1014.77 1014.60 1015.22
1018.79 1018.43 1018.37 1018.46 1019.21 1019.22 1019.09 1019.08 1019.30 1019.60 1019.85 1019.42 1018.55 1018.34 1018.29 1018.47 1018.49 1017.84 1017.54 1017.38 1018.21 1018.72 1019.48 1018.99 1018.31 1018.13 1018.39 1018.22 1018.06 1018.66 1018.63 1018.87 1019.11 1019.31 1019.25 1019.14 1018.97 1016.76 1016.11 1015.54 1015.16 1015.10 1014.90 1014.46 1015.01
1018.55 1018.34 1018.53 1019.00 1019.25 1019.11 1018.97 1019.24 1019.66 1020.13 1020.31 1019.49 1018.69 1018.35 1018.24 1018.17 1018.23 1017.86 1017.61 1017.46 1017.79 1018.51 1018.86 1018.63 1018.51 1018.48 1018.45 1018.41 1018.31 1018.54 1018.97 1019.45 1020.00 1020.07 1019.90 1019.06 1018.77 1016.94 1016.00 1015.00 1014.57 1014.32 1014.02 1014.19 1014.48
1018.21 1018.28 1018.52 1018.83 1019.20 1018.86 1018.98 1019.71 1020.32 1020.32 1020.79 1019.57 1018.66 1018.08 1017.78 1017.88 1017.94 1017.78 1017.73 1017.77 1017.80 1018.77 1018.78 1018.89 1018.74 1018.66 1018.50 1018.68 1018.66 1018.65 1019.35 1020.40 1021.04 1020.91 1020.13 1019.34 1019.06 1016.77 1015.15 1014.48 1014.34 1014.12 1014.24 1014.23 1014.41
1018.03 1018.28 1018.65 1018.80 1018.80 1018.82 1019.11 1019.94 1020.32 1020.81 1020.19 1019.18 1018.71 1017.94 1017.74 1017.51 1017.62 1017.82 1017.78 1017.91 1017.89 1017.99 1018.70 1018.76 1019.39 1018.82 1018.79 1018.85 1018.78 1019.09 1019.37 1020.04 1020.58 1021.03 1020.42 1019.73 1018.41 1015.99 1014.51 1014.18 1014.04 1014.27 1014.23 1014.55 1015.09
1018.20 1018.71 1019.02 1019.07 1018.79 1018.92 1019.56 1019.94 1020.58 1020.27 1019.72 1019.09 1018.41 1017.92 1017.53 1017.56 1017.50 1017.44 1017.62 1017.65 1017.53 1017.42 1017.89 1018.49 1019.01 1018.99 1018.95 1018.93 1019.08 1019.36 1019.62 1020.03 1020.59 1021.55 1020.98 1019.20 1018.19 1015.85 1014.49 1014.09 1013.76 1013.88 1014.19 1014.60 1015.00
1018.51 1018.85 1019.30 1018.95 1018.87 1019.27 1019.80 1020.31 1020.04 1019.26 1018.83 1018.74 1018.16 1017.70 1017.41 1017.27 1017.48 1017.59 1017.46 1016.98 1017.08 1017.07 1016.88 1018.00 1018.90 1018.97 1018.99 1018.94 1019.15 1019.16 1019.36 1020.08 1020.58 1020.97 1020.47 1019.05 1018.10 1016.01 1014.82 1014.81 1014.49 1014.15 1014.31 1014.46 1014.83
1018.57 1018.98 1019.20 1019.00 1019.09 1019.82 1020.49 1020.21 1019.28 1018.41 1018.27 1018.25 1017.89 1017.63 1017.38 1017.52 1017.60 1017.73 1017.21 1016.69 1016.62 1017.12 1017.26 1017.71 1018.18 1019.23 1019.03 1018.81 1018.69 1019.24 1019.26 1019.65 1019.94 1020.23 1019.98 1019.28 1016.94 1015.14 1014.71 1014.63 1014.77 1014.48 1014.70 1014.87 1014.98
1018.69 1019.40 1019.34 1019.35 1019.83 1020.53 1020.67 1019.65 1018.66 1018.13 1017.92 1017.67 1017.56 1017.39 1017.33 1017.19 1017.22 1017.48 1017.08 1016.44 1016.00 1016.52 1017.18 1017.28 1018.06 1018.53 1018.39 1018.20 1018.21 1018.23 1018.46 1019.04 1019.46 1020.07 1020.19 1019.34 1016.38 1014.70 1014.53 1014.58 1014.93 1014.92 1014.78 1015.03 1015.43
1019.02 1019.50 1019.46 1019.42 1020.42 1021.06 1020.23 1019.42 1018.64 1017.94 1017.58 1017.43 1017.24 1016.96 1016.84 1016.80 1017.06 1016.82 1016.48 1015.87 1016.00 1016.10 1016.26 1016.88 1017.80 1018.43 1018.70 1018.84 1018.37 1018.20 1018.24 1018.46 1018.92 1019.27 1019.23 1018.64 1016.06 1014.80 1014.55 1014.54 1014.66 1014.83 1015.19 1015.33 1015.43
1019.39 1020.15 1020.20 1020.24 1020.76 1020.78 1020.49 1019.63 1018.74 1017.77 1017.59 1017.45 1017.22 1017.01 1017.09 1016.98 1016.72 1016.53 1016.21 1015.77 1015.85 1015.97 1016.10 1016.57 1017.23 1017.24 1017.25 1017.05 1017.36 1018.02 1017.87 1017.99 1018.28 1018.31 1017.87 1015.91 1015.93 1014.58 1013.83 1014.28 1014.54 1014.89 1015.18 1015.36 1015.37
1019.74 1021.03 1021.29 1021.18 1021.28 1020.95 1020.55 1019.96 1019.30 1018.50 1017.85 1017.49 1017.49 1017.87 1017.70 1017.44 1016.97 1016.60 1016.08 1016.03 1015.86 1015.82 1016.25 1016.72 1016.99 1017.30 1016.99 1017.05 1017.15 1017.18 1017.24 1017.50 1017.59 1017.32 1016.83 1015.34 1014.34 1014.26 1013.64 1013.85 1014.23 1014.48 1014.73 1015.11 1015.25
1020.23 1021.25 1021.78 1021.54 1021.31 1021.09 1020.65 1020.07 1019.68 1019.27 1018.88 1018.11 1018.08 1018.05 1017.93 1017.73 1017.29 1017.16 1017.01 1016.54 1015.84 1016.05 1016.27 1016.65 1017.13 1017.40 1017.36 1016.89 1017.04 1017.19 1016.91 1016.91 1016.69 1016.33 1015.91 1015.26 1013.91 1013.30 1013.13 1013.39 1013.65 1013.80 1014.29 1014.56 1014.54
1020.77 1021.04 1021.18 1021.79 1021.68 1021.52 1020.90 1020.35 1020.31 1020.12 1019.12 1018.76 1018.64 1018.69 1018.15 1017.71 1017.34 1017.28 1017.13 1016.90 1016.35 1015.91 1016.03 1016.65 1017.28 1017.89 1017.73 1017.49 1017.49 1017.37 1015.97 1015.57 1015.32 1014.96 1014.61 1014.65 1012.77 1012.90 1012.67 1012.82 1012.68 1012.66 1012.96 1013.11 1013.29
Wind_Speed
19 19 20 19 16 14 11 10 10 9 8 8 9 9 7 4 8 4 2 4 3 8 7 1 2 6 4 4 3 2 4 11 10 9 5 2 4 0 2 3 5 6 7 10 6
18 19 19 18 15 11 12 11 9 8 9 8 8 8 8 4 2 3 7 13 14 5 2 3 4 6 3 4 3 4 4 6 4 4 6 4 3 1 3 4 4 6 15 13 4
17 18 18 16 13 11 11 10 10 10 9 9 8 8 8 2 1 2 8 9 12 6 4 1 1 4 2 3 4 4 5 5 2 5 6 5 3 2 4 3 3 7 13 13 4
15 16 16 14 12 10 10 11 10 10 9 9 8 8 5 2 2 2 8 10 14 3 6 1 2 6 3 6 4 6 4 4 5 2 5 4 2 2 1 4 2 3 5 8 5
15 14 14 14 11 11 9 10 10 8 8 9 8 8 3 3 3 3 8 8 9 7 7 5 4 4 5 5 5 3 6 7 7 7 6 6 3 3 5 2 1 6 10 13 7
13 13 14 11 11 10 9 9 8 8 8 8 8 5 3 3 4 7 8 3 4 6 6 5 6 3 4 6 5 6 5 10 6 5 4 4 1 2 3 5 10 10 11 10 9
13 12 12 12 10 10 9 8 8 8 8 8 8 3 3 1 5 6 6 3 2 5 6 4 1 3 2 5 2 10 6 3 1 2 3 4 5 9 2 7 8 10 11 10 11
13 12 10 11 11 10 10 7 6 7 7 6 7 3 0 2 3 7 6 3 7 2 4 6 2 4 2 1 2 6 6 5 2 6 1 2 8 6 5 1 6 9 11 11 14
12 12 11 11 11 11 10 4 4 5 5 5 5 3 3 5 5 5 3 4 5 2 4 5 1 3 2 5 3 3 5 6 3 4 2 2 5 8 4 2 9 7 10 11 14
12 11 11 10 10 11 9 1 3 4 4 1 0 3 6 4 3 6 6 5 6 4 5 2 3 3 2 2 12 6 6 5 7 9 5 9 11 3 2 8 11 9 11 12 12
13 12 11 10 10 9 4 3 5 5 7 1 2 1 3 7 1 4 4 2 2 2 4 1 2 10 5 3 3 7 5 5 2 7 8 12 11 7 10 3 5 9 12 15 14
13 12 10 8 8 4 3 5 3 1 3 2 2 2 1 1 4 5 3 3 2 8 3 4 5 5 5 4 6 5 7 3 1 2 12 7 14 10 11 9 7 13 16 16 10
14 11 9 6 6 3 2 5 2 3 3 3 1 2 2 2 2 4 2 2 7 8 6 1 5 11 4 4 7 2 5 4 5 2 2 4 10 8 9 9 11 10 17 16 12
14 11 6 4 4 1 2 3 2 1 4 5 3 1 1 1 3 2 1 2 4 7 3 2 2 11 6 4 5 4 3 5 5 3 4 2 5 6 14 18 17 16 17 17 9
14 8 2 4 4 2 1 3 2 4 6 6 1 1 2 3 1 4 1 2 6 7 1 3 6 7 6 6 3 3 3 5 3 3 2 0 3 5 5 19 17 16 17 19 9
12 3 7 4 2 1 5 4 4 7 2 2 3 1 0 1 1 2 2 3 2 5 3 2 0 2 2 3 2 7 5 6 4 2 2 6 5 3 5 11 7 14 19 20 17
8 4 4 3 2 3 3 4 6 8 2 3 1 3 3 3 1 1 1 2 5 4 1 2 2 2 2 6 3 2 4 2 2 2 5 2 4 10 9 7 6 9 11 13 14
1 10 3 2 1 3 1 4 10 3 4 2 2 3 1 5 1 2 3 1 1 4 3 2 2 4 1 3 6 3 4 5 6 4 3 1 5 7 7 7 6 6 4 2 5
7 2 3 3 2 0 4 7 6 6 4 2 2 3 3 2 2 4 4 4 6 6 5 4 2 1 2 2 1 4 4 3 5 1 1 3 5 10 6 10 6 7 4 7 6
3 3 1 2 1 3 5 3 2 4 3 2 4 5 3 3 3 5 5 5 5 6 2 5 4 1 2 2 3 1 5 3 2 2 4 2 3 6 5 1 6 7 7 6 4
3 4 2 2 2 4 4 4 4 5 4 4 2 3 3 4 6 4 5 3 4 5 3 5 4 3 5 6 7 4 3 1 2 3 3 1 5 6 5 2 6 10 8 6 6
3 2 1 2 4 1 1 3 2 2 2 3 2 3 3 2 5 4 6 5 8 9 8 6 4 5 5 2 1 2 6 5 4 4 0 2 8 3 5 4 3 9 9 2 6
3 2 1 3 4 3 5 3 2 1 3 2 3 5 3 3 2 5 3 2 8 9 9 7 4 4 3 1 1 5 6 6 3 3 7 4 4 2 1 5 2 3 5 4 7
4 2 5 4 1 4 1 2 4 2 2 3 4 2 1 4 5 5 3 3 6 5 7 7 3 5 8 5 6 5 7 10 9 6 6 17 11 18 14 8 5 4 5 6 6
4 1 2 2 1 3 3 0 2 3 2 2 2 4 4 4 3 6 5 2 3 6 4 7 4 4 5 4 4 5 7 14 15 17 13 3 20 17 19 15 5 6 4 7 10
5 4 3 2 1 2 3 4 2 3 2 4 3 5 3 5 2 4 4 1 6 4 8 2 2 2 4 4 6 5 7 9 18 20 20 22 25 19 15 6 8 9 7 10 10
1 2 4 1 1 1 3 2 2 1 5 5 2 3 7 8 3 10 9 12 8 5 7 8 6 4 3 0 1 4 15 18 10 8 18 18 25 8 11 9 14 15 9 14 15
Wind_Direction
354 353 353 353 357 4 8 5 11 25 13 357 359 8 348 150 101 120 238 258 288 305 356 108 188 135 117 105 98 92 158 213 195 170 167 140 147 5 348 8 48 38 10 328 176
352 358 355 7 15 19 16 16 36 38 27 10 7 7 353 171 74 112 233 281 308 284 41 126 180 126 131 112 144 168 189 197 158 159 151 134 108 79 113 56 32 10 4 358 160
355 359 357 10 18 21 16 19 29 30 28 18 12 6 13 32 225 237 223 287 318 278 107 31 280 101 167 130 165 154 194 143 40 114 110 117 98 125 119 66 118 352 341 338 304
359 359 4 17 21 17 19 10 26 28 25 24 18 13 21 9 46 277 92 291 299 235 113 136 120 125 171 161 165 162 182 128 161 115 93 96 106 5 162 139 1 0 343 333 273
359 355 8 10 13 13 16 8 7 18 20 26 26 12 39 66 289 293 346 340 305 171 152 167 128 155 159 155 128 145 169 111 130 106 95 122 84 288 244 189 30 358 24 7 300
353 359 354 359 7 4 11 14 5 2 4 16 18 15 73 56 282 331 356 335 330 145 147 166 188 175 125 174 156 140 144 148 151 110 65 94 146 165 98 24 3 3 359 352 313
350 354 348 348 356 359 351 359 2 349 351 2 21 31 65 296 320 324 338 286 323 170 168 177 241 112 134 151 137 134 92 59 80 172 111 92 283 231 83 11 352 355 346 340 323
347 345 341 336 347 346 346 344 346 334 334 357 23 42 133 287 322 348 333 318 4 83 153 159 91 90 69 44 71 112 110 154 166 145 210 166 255 269 100 35 314 333 327 327 318
343 345 336 334 338 337 337 344 339 340 319 351 27 37 350 338 7 322 357 33 351 358 115 118 346 91 58 119 107 58 159 130 123 193 133 190 303 297 74 265 259 294 301 306 311
342 339 332 328 332 334 327 30 349 1 337 314 335 36 4 322 310 328 333 38 18 183 90 116 56 97 50 117 184 139 126 120 136 199 178 209 252 328 115 187 235 272 289 292 292
339 337 326 324 328 341 9 35 23 354 35 41 282 218 309 305 286 357 353 42 289 117 119 325 151 174 146 167 148 111 114 139 175 185 175 208 237 232 199 221 196 274 277 269 271
335 335 325 324 329 359 70 96 143 183 43 210 306 297 239 263 18 357 18 96 276 101 74 51 211 174 165 103 127 109 119 143 283 141 190 210 231 223 201 214 201 229 248 251 252
332 333 325 325 339 40 86 141 129 155 91 38 7 332 305 17 46 324 351 152 79 97 86 55 276 152 149 134 110 75 142 161 161 132 230 152 249 238 216 238 232 204 252 249 229
333 331 326 3 68 228 64 157 109 95 76 15 19 323 252 122 17 255 281 151 69 91 61 265 273 147 144 144 132 121 185 163 134 117 184 136 281 231 212 215 224 228 234 246 243
332 330 347 92 146 75 194 137 98 59 59 331 315 20 19 94 190 338 241 49 123 115 160 205 186 150 144 167 129 139 155 143 115 109 107 328 222 265 197 223 219 221 237 255 236
331 314 121 78 61 287 108 89 50 48 7 26 307 312 138 86 18 286 19 46 126 84 75 318 280 74 150 71 80 147 86 55 49 98 232 208 191 244 217 221 216 224 223 226 239
329 157 110 133 142 153 126 53 41 81 340 292 41 245 229 155 101 22 21 118 135 119 13 58 53 79 85 80 24 149 87 103 349 247 221 164 166 262 262 232 224 225 221 223 231
121 124 95 82 136 146 32 46 67 240 235 293 259 248 163 173 106 142 161 184 199 106 131 145 166 173 128 159 171 174 166 156 199 204 251 336 223 246 256 276 231 241 267 285 219
132 40 67 336 147 119 70 50 185 197 203 241 357 267 189 194 131 189 224 210 194 182 123 145 116 62 49 113 125 197 193 163 106 61 29 216 287 287 270 283 301 277 254 240 230
110 87 26 301 102 64 77 156 185 192 190 178 226 183 239 170 185 192 194 203 192 185 155 184 109 245 138 144 37 198 150 118 74 246 245 268 254 238 246 224 293 304 293 267 225
62 72 253 138 67 56 104 220 265 219 182 183 263 291 262 203 182 234 223 249 191 159 155 149 119 160 127 203 171 158 175 85 148 169 205 301 260 217 230 207 302 296 290 266 212
112 56 173 111 50 50 115 209 278 283 147 255 221 239 245 302 209 240 238 248 171 147 168 196 119 176 187 152 232 242 172 175 211 202 121 143 253 213 241 277 261 282 298 250 184
105 159 7 124 88 322 309 299 247 296 243 200 254 206 181 243 256 198 212 286 169 163 167 176 175 139 151 302 300 212 190 174 112 133 201 196 251 201 237 307 294 273 294 254 145
94 45 337 49 38 140 15 281 308 290 257 282 263 214 252 251 206 263 235 245 184 194 182 127 187 197 189 186 138 181 201 200 196 215 223 234 269 286 281 287 297 287 220 210 183
32 188 172 265 313 137 185 344 279 326 352 306 310 35 289 280 273 224 226 212 181 201 189 152 224 200 223 155 167 189 192 198 212 228 222 213 239 241 254 271 257 256 232 196 186
126 133 12 94 94 175 202 207 219 301 255 278 199 309 336 259 292 294 19 273 231 173 158 186 235 102 305 254 209 235 226 209 216 226 242 252 270 257 258 232 256 255 217 232 210
189 72 107 7 123 106 236 169 163 43 277 246 156 343 288 266 263 299 297 274 249 205 174 153 147 156 238 155 185 285 220 216 214 217 217 235 241 257 261 232 248 260 235 220 214